Houghton, MI

5:01 PM EST on February 24, 2018 (GMT -0500)
Houghton County Memorial

Weather History for KCMX - March, 2014

Change the Weather History Date:

Saturday, March 29, 2014

  Actual Average Record
Temperature  
Mean Temperature 23 °F -  
Max Temperature 37 °F 37 °F 57 °F (2007)
Min Temperature 9 °F 24 °F 0 °F (1970)
Degree Days  
Heating Degree Days 42    
Moisture  
Dew Point 12 °F    
Average Humidity 63    
Maximum Humidity 84    
Minimum Humidity 35    
Precipitation  
Precipitation 0.00 in - - ()
Sea Level Pressure  
Sea Level Pressure 30.28 in    
Wind  
Wind Speed 3 mph (ESE)    
Max Wind Speed 9 mph    
Max Gust Speed -    
Visibility 10 miles    
Events      
Averages and records for this station are not official NWS values.
T = Trace of Precipitation, MM = Missing Value Source: NWS Daily Summary

Daily Weather History Graph

Daily Weather History Graph

Search for Another Location

Airport or City:

Trip Planner

Search our weather history database for the weather conditions in past years. The results will help you decide how hot, cold, wet, or windy it might be!

Date:

Astronomy

Mar. 29, 2014 Rise Set
Actual Time 7:38 AM EDT 8:19 PM EDT
Civil Twilight 7:08 AM EDT 8:50 PM EDT
Nautical Twilight 6:31 AM EDT 9:26 PM EDT
Astronomical Twilight 5:53 AM EDT 10:05 PM EDT
Moon 6:51 AM EDT (3/29) 7:21 PM EDT (3/29)
Length of Visible Light 13h 42m
Length of Day
12h 40m
Waning Crescent, 2% of the Moon is Illuminated
Mar 29
Waning Crescent
Mar 30
New
Apr 7
First Quarter
Apr 15
Full
Apr 22
Last Quarter

Hourly Weather History & Observations

Time (EDT) Temp. Windchill Dew Point Humidity Pressure Visibility Wind Dir Wind Speed Gust Speed Precip Events Conditions
12:53 AM 19.0 °F - 12.9 °F 77% 30.27 in 10.0 mi Calm Calm - N/A   Overcast
1:53 AM 18.0 °F - 12.0 °F 78% 30.27 in 10.0 mi Calm Calm - N/A   Overcast
2:53 AM 17.1 °F - 10.9 °F 77% 30.27 in 10.0 mi Calm Calm - N/A   Overcast
3:53 AM 9.0 °F 2.4 °F 5.0 °F 84% 30.28 in 10.0 mi NW 3.5 mph - N/A   Clear
4:53 AM 9.0 °F - 5.0 °F 84% 30.29 in 10.0 mi Calm Calm - N/A   Overcast
5:53 AM 12.9 °F 6.9 °F 8.1 °F 81% 30.30 in 10.0 mi NW 3.5 mph - N/A   Mostly Cloudy
6:53 AM 12.0 °F - 6.1 °F 77% 30.31 in 10.0 mi Calm Calm - N/A   Mostly Cloudy
7:53 AM 12.0 °F - 7.0 °F 80% 30.33 in 10.0 mi Calm Calm - N/A   Overcast
8:53 AM 17.1 °F - 12.0 °F 81% 30.33 in 10.0 mi Calm Calm - N/A   Clear
9:53 AM 21.9 °F 17.2 °F 15.1 °F 75% 30.32 in 10.0 mi South 3.5 mph - N/A   Clear
10:53 AM 28.0 °F 22.8 °F 15.1 °F 58% 30.32 in 10.0 mi South 4.6 mph - N/A   Clear
11:53 AM 30.9 °F 25.2 °F 12.0 °F 46% 30.33 in 10.0 mi South 5.8 mph - N/A   Clear
12:53 PM 33.1 °F 30.0 °F 9.0 °F 37% 30.32 in 10.0 mi SSW 3.5 mph - N/A   Clear
1:53 PM 35.1 °F - 10.0 °F 35% 30.30 in 10.0 mi Calm Calm - N/A   Clear
2:53 PM 37.0 °F - 12.0 °F 36% 30.28 in 10.0 mi Calm Calm - N/A   Clear
3:53 PM 34.0 °F 28.8 °F 18.0 °F 52% 30.28 in 10.0 mi ESE 5.8 mph - N/A   Clear
4:53 PM 34.0 °F 28.0 °F 15.1 °F 46% 30.26 in 10.0 mi East 6.9 mph - N/A   Clear
5:53 PM 32.0 °F 24.2 °F 17.1 °F 54% 30.25 in 10.0 mi ESE 9.2 mph - N/A   Clear
6:53 PM 30.9 °F 22.8 °F 16.0 °F 54% 30.25 in 10.0 mi ESE 9.2 mph - N/A   Clear
7:53 PM 28.0 °F 20.0 °F 14.0 °F 56% 30.25 in 10.0 mi East 8.1 mph - N/A   Clear
8:53 PM 25.0 °F 16.3 °F 12.0 °F 58% 30.25 in 10.0 mi East 8.1 mph - N/A   Clear
9:53 PM 24.1 °F 15.2 °F 12.0 °F 60% 30.24 in 10.0 mi East 8.1 mph - N/A   Clear
10:53 PM 24.1 °F 14.4 °F 10.9 °F 57% 30.22 in 10.0 mi East 9.2 mph - N/A   Clear
11:53 PM 23.0 °F 13.9 °F 10.0 °F 58% 30.21 in 10.0 mi East 8.1 mph - N/A   Clear